Weather History for Bangkok (Suvarnabhumi), Thailand

Change the Weather History Date:

Friday, February 15, 2013

  Actual Average (VTBD) Record (VTBD)
Temperature  
Mean Temperature 86 °F -  
Max Temperature 94 °F 92 °F 98 °F (1997)
Min Temperature 77 °F 74 °F 68 °F (2004)
Cooling Degree Days 20    
Growing Degree Days 36 (Base 50)    
Moisture  
Dew Point 68 °F    
Average Humidity 58    
Maximum Humidity 79    
Minimum Humidity 32    
Precipitation  
Precipitation 0.00 in 0.03 in - ()
Sea Level Pressure  
Sea Level Pressure 29.81 in    
Wind  
Wind Speed 4 mph ()    
Max Wind Speed 15 mph    
Max Gust Speed -    
Visibility 4.4 miles    
Events      
Averages and records for this station are not official NWS values.
T = Trace of Precipitation, MM = Missing Value Source: Averaged Metar Reports

Daily Weather History Graph

Daily Weather History Graph

Search for Another Location

Airport:

Trip Planner

Search our weather history database for the weather conditions in past years. The results will help you decide how hot, cold, wet, or windy it might be!

Date:

Astronomy

Feb. 15, 2013 Rise Set
Actual Time 6:38 AM ICT 6:21 PM ICT
Civil Twilight 6:17 AM ICT 6:43 PM ICT
Nautical Twilight 5:52 AM ICT 7:08 PM ICT
Astronomical Twilight 5:27 AM ICT 7:33 PM ICT
Moon 9:57 AM ICT (2/15) 10:46 PM ICT (2/15)
Length of Visible Light 12h 26m
Length of Day
11h 42m
Waxing Crescent, 25% of the Moon is Illuminated
Feb 15
Waxing Crescent
Feb 18
First Quarter
Feb 26
Full
Mar 5
Last Quarter
Mar 12
New

Hourly Weather History & Observations

Time (ICT) Temp. Heat Index Dew Point Humidity Pressure Visibility Wind Dir Wind Speed Gust Speed Precip Events Conditions
12:00 AM 82.4 °F 84.6 °F 66.2 °F 58% 29.86 in 4.3 mi NW 2.3 mph - N/A   Unknown
12:30 AM 82.4 °F 84.6 °F 66.2 °F 58% 29.83 in 4.3 mi NW 3.5 mph - N/A   Unknown
1:00 AM 82 °F - 76 °F 77% 29.83 in 4 mi Calm Calm - -   Mist
1:00 AM 80.6 °F 83.2 °F 68.0 °F 65% 29.83 in 4.3 mi SW 3.5 mph - N/A   Unknown
1:30 AM 80.6 °F 83.9 °F 69.8 °F 70% 29.83 in 4.3 mi SE 3.5 mph - N/A   Unknown
2:00 AM 80.6 °F 83.2 °F 68.0 °F 65% 29.83 in 3.7 mi Calm Calm - N/A   Unknown
2:30 AM 80.6 °F 82.7 °F 66.2 °F 61% 29.80 in 4.3 mi Calm Calm - N/A   Unknown
3:00 AM 80.6 °F 82.7 °F 66.2 °F 61% 29.80 in 4.3 mi NNE 3.5 mph - N/A   Unknown
3:30 AM 80.6 °F 82.7 °F 66.2 °F 61% 29.80 in 3.7 mi NNE 3.5 mph - N/A   Unknown
4:00 AM 78.8 °F - 68.0 °F 69% 29.80 in 3.7 mi NE 3.5 mph - N/A   Unknown
4:30 AM 78.8 °F - 66.2 °F 65% 29.80 in 3.7 mi North 2.3 mph - N/A   Unknown
5:00 AM 78.8 °F - 68.0 °F 69% 29.80 in 3.7 mi Variable 2.3 mph - N/A   Unknown
5:30 AM 77.0 °F - 68.0 °F 74% 29.80 in 3.1 mi Calm Calm - N/A   Mist
6:00 AM 77.0 °F - 68.0 °F 74% 29.80 in 3.1 mi North 2.3 mph - N/A   Mist
6:30 AM 77.0 °F - 68.0 °F 74% 29.83 in 3.1 mi NNW 2.3 mph - N/A   Mist
7:00 AM 79 °F - 74 °F 79% 29.81 in 4 mi Calm Calm - -   Mist
7:00 AM 77.0 °F - 68.0 °F 74% 29.83 in 3.1 mi NNW 3.5 mph - N/A   Unknown
7:30 AM 78.8 °F - 69.8 °F 74% 29.83 in 3.1 mi NNW 4.6 mph - N/A   Unknown
8:00 AM 80.6 °F 83.2 °F 68.0 °F 65% 29.86 in 3.1 mi NW 3.5 mph - N/A   Mist
8:30 AM 82.4 °F 85.4 °F 68.0 °F 62% 29.86 in 3.7 mi NNW 3.5 mph - N/A   Unknown
9:00 AM 84.2 °F 86.6 °F 66.2 °F 55% 29.89 in 3.7 mi NNW 3.5 mph - N/A   Unknown
9:30 AM 86.0 °F 88.2 °F 66.2 °F 51% 29.89 in 4.3 mi NNW 4.6 mph - N/A   Unknown
10:00 AM 89.6 °F 92.2 °F 66.2 °F 46% 29.89 in 4.3 mi NNW 4.6 mph - N/A   Unknown
10:30 AM 89.6 °F 91.1 °F 64.4 °F 43% 29.89 in 5.0 mi NNW 4.6 mph - N/A   Unknown
11:00 AM 93.2 °F 94.1 °F 62.6 °F 36% 29.86 in 5.6 mi ENE 5.8 mph - N/A   Unknown
11:30 AM 93.2 °F 94.9 °F 64.4 °F 38% 29.86 in 5.6 mi ENE 6.9 mph - N/A   Unknown
12:00 PM 93.2 °F 94.9 °F 64.4 °F 38% 29.86 in 5.6 mi ESE 4.6 mph - N/A   Unknown
12:30 PM 93.2 °F 96.2 °F 66.2 °F 41% 29.83 in 5.6 mi ESE 5.8 mph - N/A   Unknown
1:00 PM 92 °F - 74 °F 47% 29.78 in 5 mi Calm Calm - -   Haze
1:00 PM 93.2 °F 94.9 °F 64.4 °F 38% 29.83 in 5.6 mi ESE 5.8 mph - N/A   Unknown
1:30 PM 95.0 °F 96.0 °F 62.6 °F 34% 29.80 in - SE 8.1 mph - N/A   Clear
2:00 PM 95.0 °F 96.0 °F 62.6 °F 34% 29.80 in - ESE 5.8 mph - N/A   Clear
2:30 PM 95.0 °F 96.0 °F 62.6 °F 34% 29.77 in - East 8.1 mph - N/A   Clear
3:00 PM 95.0 °F 96.0 °F 62.6 °F 34% 29.74 in - SE 6.9 mph - N/A   Clear
3:30 PM 95.0 °F 96.0 °F 62.6 °F 34% 29.74 in - SSE 5.8 mph - N/A   Clear
4:00 PM 95.0 °F 96.0 °F 62.6 °F 34% 29.74 in - SSE 5.8 mph - N/A   Clear
4:30 PM 96.8 °F 98.0 °F 62.6 °F 32% 29.74 in - SSE 4.6 mph - N/A   Clear
5:00 PM 95.0 °F 97.0 °F 64.4 °F 36% 29.74 in - ENE 4.6 mph - N/A   Clear
5:30 PM 95.0 °F 98.5 °F 66.2 °F 39% 29.74 in - South 3.5 mph - N/A   Clear
6:00 PM 93.2 °F 96.2 °F 66.2 °F 41% 29.74 in 6.2 mi SSW 4.6 mph - N/A   Scattered Clouds
6:30 PM 87.8 °F 93.8 °F 71.6 °F 58% 29.77 in 4.3 mi South 15.0 mph - N/A   Scattered Clouds
7:00 PM 86 °F - 78 °F 70% 29.76 in 5 mi WSW 5.8 mph - -   Mist
7:00 PM 86.0 °F 93.4 °F 73.4 °F 66% 29.77 in 3.7 mi South 12.7 mph - N/A   Scattered Clouds
7:30 PM 84.2 °F 92.3 °F 75.2 °F 74% 29.77 in 4.3 mi South 11.5 mph - N/A   Scattered Clouds
8:00 PM 84.2 °F 92.3 °F 75.2 °F 74% 29.80 in 4.3 mi SSW 15.0 mph - N/A   Scattered Clouds
8:30 PM 84.2 °F 92.3 °F 75.2 °F 74% 29.80 in 4.3 mi SSW 8.1 mph - N/A   Scattered Clouds
9:00 PM 84.2 °F 92.3 °F 75.2 °F 74% 29.83 in 4.3 mi SSW 8.1 mph - N/A   Scattered Clouds
9:30 PM 84.2 °F 90.9 °F 73.4 °F 70% 29.83 in 5.0 mi South 10.4 mph - N/A   Scattered Clouds
10:00 PM 82.4 °F 89.5 °F 75.2 °F 79% 29.86 in 5.6 mi South 10.4 mph - N/A   Scattered Clouds
10:30 PM 82.4 °F 89.5 °F 75.2 °F 79% 29.86 in 5.6 mi SSW 10.4 mph - N/A   Scattered Clouds
11:00 PM 82.4 °F 89.5 °F 75.2 °F 79% 29.86 in 5.6 mi South 11.5 mph - N/A   Scattered Clouds
11:30 PM 82.4 °F 89.5 °F 75.2 °F 79% 29.86 in 5.6 mi South 10.4 mph - N/A   Scattered Clouds